| time (UTC) | temp C | wind direction | speed KPH | gust KPH | rain 1hr cm | rain 24hr cm | rain mn cm | humidity % | barometer mb |
| 20260505124505 | 23 | 141 | 0.0 | 8.0 | 0.00 | 0.00 | 0.00 | 88 | 1007.5 |
| 20260505123113 | 23 | 225 | 0.0 | 3.2 | 0.00 | 0.00 | 0.00 | 88 | 1007.2 |
| 20260505121555 | 23 | 182 | 0.0 | 6.4 | 0.00 | 0.00 | 0.00 | 89 | 1007.2 |
| 20260505120055 | 23 | 192 | 0.0 | 6.4 | 0.00 | 0.00 | 0.00 | 89 | 1007.5 |
| 20260505114559 | 23 | 182 | 0.0 | 4.8 | 0.00 | 0.00 | 0.00 | 88 | 1007.2 |
| 20260505113051 | 23 | 209 | 0.0 | 3.2 | 0.00 | 0.00 | 0.00 | 88 | 1007.0 |
| 20260505111542 | 23 | 223 | 0.0 | 1.6 | 0.00 | 0.00 | 0.00 | 88 | 1007.4 |
| 20260505101525 | 23 | 218 | 0.0 | 3.2 | 0.00 | 0.00 | 0.00 | 87 | 1007.2 |
| 20260505100030 | 23 | 209 | 0.0 | 3.2 | 0.00 | 0.00 | 0.00 | 87 | 1007.0 |
| 20260505094517 | 23 | 192 | 0.0 | 4.8 | 0.00 | 0.00 | 0.00 | 87 | 1007.3 |
| 20260505093013 | 22 | 207 | 0.0 | 4.8 | 0.00 | 0.00 | 0.00 | 87 | 1007.5 |
| 20260505091512 | 22 | 207 | 0.0 | 4.8 | 0.00 | 0.00 | 0.00 | 87 | 1007.4 |
| 20260505090009 | 23 | 277 | 0.0 | 6.4 | 0.00 | 0.00 | 0.00 | 86 | 1007.5 |
| 20260505084504 | 23 | 253 | 0.0 | 4.8 | 0.00 | 0.00 | 0.00 | 86 | 1007.4 |
| 20260505083109 | 23 | 146 | 0.0 | 3.2 | 0.00 | 0.00 | 0.00 | 86 | 1007.5 |
| 20260505081556 | 23 | 164 | 0.0 | 6.4 | 0.00 | 0.00 | 0.00 | 85 | 1007.6 |
| 20260505080055 | 23 | 225 | 0.0 | 4.8 | 0.00 | 0.00 | 0.00 | 85 | 1007.8 |
| 20260505074548 | 22 | 245 | 0.0 | 4.8 | 0.00 | 0.00 | 0.00 | 85 | 1007.9 |
| 20260505073055 | 22 | 138 | 0.0 | 6.4 | 0.00 | 0.00 | 0.00 | 85 | 1007.9 |
| 20260505071543 | 22 | 292 | 0.0 | 6.4 | 0.00 | 0.00 | 0.00 | 85 | 1008.0 |
| 20260505070050 | 22 | 134 | 0.0 | 4.8 | 0.00 | 0.00 | 0.00 | 85 | 1008.3 |
| 20260505064538 | 22 | 169 | 0.0 | 6.4 | 0.00 | 0.00 | 0.00 | 85 | 1008.5 |
| 20260505063037 | 22 | 192 | 0.0 | 1.6 | 0.00 | 0.00 | 0.00 | 85 | 1008.8 |
| 20260505061535 | 22 | 70 | 0.0 | 1.6 | 0.00 | 0.00 | 0.00 | 85 | 1008.9 |
| 20260505060037 | 22 | 103 | 0.0 | 3.2 | 0.00 | 0.00 | 0.00 | 84 | 1008.8 |
| 20260505054534 | 22 | 227 | 0.0 | 4.8 | 0.00 | 0.00 | 0.00 | 84 | 1009.0 |
| 20260505053033 | 22 | 133 | 0.0 | 1.6 | 0.00 | 0.00 | 0.00 | 83 | 1009.0 |
| 20260505051536 | 22 | 138 | 0.0 | 6.4 | 0.00 | 0.00 | 0.00 | 83 | 1009.1 |
| 20260505041546 | 22 | 69 | 0.0 | 1.6 | 0.00 | 0.00 | 0.00 | 83 | 1009.6 |
| 20260505040028 | 22 | 182 | 0.0 | 0.0 | 0.00 | 0.00 | 0.00 | 82 | 1009.7 |
| 20260505034528 | 22 | 229 | 0.0 | 0.0 | 0.00 | 0.00 | 0.00 | 82 | 1009.8 |
| 20260505033027 | 22 | 218 | 0.0 | 0.0 | 0.00 | 0.00 | 0.00 | 81 | 1009.8 |
| 20260505031527 | 22 | 209 | 0.0 | 0.0 | 0.00 | 0.00 | 0.00 | 80 | 1009.7 |
| 20260505030033 | 22 | 147 | 0.0 | 0.0 | 0.00 | 0.00 | 0.00 | 80 | 1009.7 |
| 20260505024527 | 22 | 158 | 0.0 | 1.6 | 0.00 | 0.00 | 0.00 | 79 | 1009.8 |
| 20260505023033 | 22 | 140 | 0.0 | 3.2 | 0.00 | 0.00 | 0.00 | 79 | 1009.7 |
| 20260505021527 | 22 | 111 | 0.0 | 3.2 | 0.00 | 0.00 | 0.00 | 78 | 1009.6 |
| 20260505020026 | 22 | 225 | 0.0 | 3.2 | 0.00 | 0.00 | 0.00 | 78 | 1009.6 |
| 20260505014524 | 23 | 153 | 0.0 | 0.0 | 0.00 | 0.00 | 0.00 | 78 | 1009.3 |
| 20260505013025 | 23 | 131 | 0.0 | 1.6 | 0.00 | 0.00 | 0.00 | 77 | 1009.3 |
| 20260505011529 | 23 | 153 | 0.0 | 6.4 | 0.00 | 0.00 | 0.00 | 77 | 1009.4 |
| 20260505010023 | 23 | 147 | 0.0 | 3.2 | 0.00 | 0.00 | 0.00 | 76 | 1009.2 |
| 20260505004533 | 23 | 274 | 0.0 | 8.0 | 0.00 | 0.00 | 0.00 | 76 | 1009.1 |
| 20260505003021 | 23 | 133 | 0.0 | 4.8 | 0.00 | 0.00 | 0.00 | 75 | 1009.2 |
| 20260505001520 | 23 | 141 | 0.0 | 4.8 | 0.00 | 0.00 | 0.00 | 74 | 1009.2 |
| 20260505000028 | 24 | 141 | 0.0 | 3.2 | 0.00 | 0.00 | 0.00 | 73 | 1009.3 |
| 20260504234519 | 24 | 149 | 0.0 | 3.2 | 0.00 | 0.00 | 0.00 | 73 | 1009.3 |
| 20260504233017 | 25 | 158 | 1.6 | 4.8 | 0.00 | 0.00 | 0.00 | 72 | 1009.5 |
| 20260504231516 | 24 | 163 | 0.0 | 6.4 | 0.00 | 0.00 | 0.00 | 73 | 1009.7 |
| 20260504230018 | 24 | 165 | 0.0 | 3.2 | 0.00 | 0.00 | 0.00 | 73 | 1010.0 |
| 20260504224514 | 25 | 146 | 0.0 | 4.8 | 0.00 | 0.00 | 0.00 | 72 | 1009.9 |
| 20260504223012 | 25 | 125 | 0.0 | 3.2 | 0.00 | 0.00 | 0.00 | 72 | 1010.1 |
| 20260504221517 | 24 | 115 | 0.0 | 3.2 | 0.00 | 0.00 | 0.00 | 71 | 1010.5 |
| 20260504220010 | 25 | 197 | 0.0 | 4.8 | 0.00 | 0.00 | 0.00 | 71 | 1010.4 |
| 20260504214512 | 25 | 148 | 0.0 | 3.2 | 0.00 | 0.00 | 0.00 | 71 | 1010.6 |
| 20260504213026 | 25 | 155 | 0.0 | 3.2 | 0.00 | 0.00 | 0.00 | 69 | 1010.7 |
| 20260504211514 | 25 | 144 | 1.6 | 4.8 | 0.00 | 0.00 | 0.00 | 70 | 1010.7 |
| 20260504210006 | 25 | 289 | 1.6 | 4.8 | 0.00 | 0.00 | 0.00 | 69 | 1011.0 |
| 20260504204504 | 25 | 143 | 0.0 | 3.2 | 0.00 | 0.00 | 0.00 | 68 | 1011.2 |
| 20260504203007 | 26 | 94 | 0.0 | 4.8 | 0.00 | 0.00 | 0.00 | 67 | 1011.4 |
| 20260504201500 | 26 | 148 | 0.0 | 6.4 | 0.00 | 0.00 | 0.00 | 67 | 1011.4 |
| 20260504200059 | 26 | 157 | 0.0 | 4.8 | 0.00 | 0.00 | 0.00 | 67 | 1011.6 |
| 20260504194606 | 26 | 154 | 0.0 | 4.8 | 0.00 | 0.00 | 0.00 | 66 | 1011.7 |
| 20260504193109 | 26 | 155 | 0.0 | 3.2 | 0.00 | 0.00 | 0.00 | 64 | 1012.1 |
| 20260504191554 | 26 | 94 | 1.6 | 8.0 | 0.00 | 0.00 | 0.00 | 64 | 1012.3 |
| 20260504190113 | 26 | 117 | 0.0 | 11.3 | 0.00 | 0.00 | 0.00 | 65 | 1012.3 |
| 20260504184600 | 26 | 131 | 1.6 | 6.4 | 0.00 | 0.00 | 0.00 | 64 | 1012.3 |
| 20260504183050 | 26 | 169 | 3.2 | 12.9 | 0.00 | 0.00 | 0.00 | 64 | 1012.5 |
| 20260504181547 | 26 | 152 | 1.6 | 14.5 | 0.00 | 0.00 | 0.00 | 67 | 1012.8 |
| 20260504180047 | 26 | 136 | 1.6 | 6.4 | 0.00 | 0.00 | 0.00 | 63 | 1012.8 |
| 20260504174545 | 26 | 224 | 1.6 | 12.9 | 0.00 | 0.00 | 0.00 | 65 | 1012.9 |
| 20260504173048 | 25 | 219 | 1.6 | 17.7 | 0.00 | 0.00 | 0.00 | 65 | 1013.3 |
| 20260504171538 | 25 | 153 | 3.2 | 8.0 | 0.00 | 0.00 | 0.00 | 64 | 1013.4 |